Weather History for Monroe, LA

Change the Weather History Date:

Saturday, February 2, 2013

  Actual Average Record
Temperature  
Mean Temperature 52 °F 48 °F  
Max Temperature 71 °F 59 °F 80 °F (1989)
Min Temperature 33 °F 37 °F -2 °F (1951)
Degree Days  
Heating Degree Days 13 17  
Month to date heating degree days 37 34  
Since 1 July heating degree days 1319 1515  
Cooling Degree Days 0 0  
Month to date cooling degree days 0 0  
Year to date cooling degree days 13 4  
Growing Degree Days 2 (Base 50)    
Moisture  
Dew Point 40 °F    
Average Humidity 67    
Maximum Humidity 89    
Minimum Humidity 44    
Precipitation  
Precipitation 0.00 in 0.16 in 3.65 in (1956)
Month to date precipitation 0.00 0.33  
Year to date precipitation 9.56 5.34  
Snow  
Snow 0.00 in - - ()
Month to date snowfall 0.0  
Since 1 July snowfall 0.3  
Snow Depth 0.00 in    
Sea Level Pressure  
Sea Level Pressure 30.24 in    
Wind  
Wind Speed 7 mph (SW)    
Max Wind Speed 21 mph    
Max Gust Speed 29 mph    
Visibility 9 miles    
Events      
T = Trace of Precipitation, MM = Missing Value Source: NWS Daily Summary

Daily Weather History Graph

Daily Weather History Graph

Search for Another Location

Airport:

Trip Planner

Search our weather history database for the weather conditions in past years. The results will help you decide how hot, cold, wet, or windy it might be!

Date:

Astronomy

Feb. 02, 2013 Rise Set
Actual Time 7:01 AM CST 5:42 PM CST
Civil Twilight 6:36 AM CST 6:08 PM CST
Nautical Twilight 6:06 AM CST 6:37 PM CST
Astronomical Twilight 5:37 AM CST 7:06 PM CST
Moon No Moon Rise 10:38 AM CST (2/2)
Length of Visible Light 11h 32m
Length of Day
10h 40m
Waning Gibbous, 59% of the Moon is Illuminated
Feb 2
Waning Gibbous
Feb 3
Last Quarter
Feb 10
New
Feb 17
First Quarter
Feb 25
Full

Hourly Weather History & Observations

Time (CST) Temp. Windchill Dew Point Humidity Pressure Visibility Wind Dir Wind Speed Gust Speed Precip Events Conditions
12:53 AM 36.0 °F - 28.0 °F 73% 30.31 in 10.0 mi Calm Calm - N/A   Clear
1:53 AM 34.0 °F - 28.0 °F 79% 30.29 in 10.0 mi Calm Calm - N/A   Clear
2:53 AM 35.6 °F 31.7 °F 28.4 °F 75% 30.28 in 10.0 mi South 4.6 mph - N/A   Clear
3:53 AM 37.0 °F 34.5 °F 28.0 °F 70% 30.26 in 10.0 mi South 3.5 mph - N/A   Clear
4:53 AM 37.9 °F 35.5 °F 30.0 °F 73% 30.25 in 10.0 mi SSE 3.5 mph - N/A   Clear
5:53 AM 37.4 °F 33.8 °F 30.2 °F 75% 30.24 in 10.0 mi South 4.6 mph - N/A   Clear
6:53 AM 37.9 °F 35.5 °F 32.0 °F 79% 30.26 in 10.0 mi South 3.5 mph - N/A   Clear
7:53 AM 41.0 °F 38.0 °F 34.0 °F 76% 30.26 in 10.0 mi South 4.6 mph - N/A   Clear
8:53 AM 48.0 °F - 39.0 °F 71% 30.26 in 10.0 mi SW 6.9 mph - N/A   Clear
9:53 AM 55.0 °F - 42.1 °F 62% 30.26 in 10.0 mi SSW 13.8 mph - N/A   Clear
10:53 AM 64.0 °F - 46.0 °F 52% 30.24 in 10.0 mi SW 13.8 mph 17.3 mph N/A   Clear
11:53 AM 66.0 °F - 46.0 °F 48% 30.23 in 10.0 mi West 19.6 mph 25.3 mph N/A   Clear
12:53 PM 70.0 °F - 46.0 °F 42% 30.19 in 10.0 mi West 12.7 mph 23.0 mph N/A   Scattered Clouds
1:53 PM 70.0 °F - 46.0 °F 42% 30.17 in 10.0 mi WNW 21.9 mph 28.8 mph N/A   Partly Cloudy
2:53 PM 66.9 °F - 46.0 °F 47% 30.17 in 10.0 mi NW 15.0 mph - N/A   Overcast
3:53 PM 66.9 °F - 46.0 °F 47% 30.17 in 10.0 mi North 11.5 mph - N/A   Mostly Cloudy
4:53 PM 66.0 °F - 48.0 °F 52% 30.17 in 10.0 mi North 6.9 mph - N/A   Clear
5:53 PM 60.1 °F - 46.0 °F 60% 30.19 in 10.0 mi NNE 5.8 mph - N/A   Clear
6:53 PM 57.0 °F - 45.0 °F 64% 30.21 in 10.0 mi NE 4.6 mph - N/A   Partly Cloudy
7:53 PM 53.1 °F - 44.1 °F 71% 30.23 in 10.0 mi Calm Calm - N/A   Clear
8:53 PM 48.9 °F - 44.1 °F 83% 30.25 in 10.0 mi Calm Calm - N/A   Clear
9:53 PM 46.0 °F - 43.0 °F 89% 30.25 in 5.0 mi Calm Calm - N/A   Clear
10:53 PM 42.1 °F - 39.9 °F 92% 30.26 in 7.0 mi Calm Calm - N/A   Clear
11:15 PM 42.8 °F - 42.8 °F 100% 30.27 in 2.5 mi Calm Calm - N/A   Clear
11:23 PM 42.8 °F - 41.0 °F 93% 30.27 in 5.0 mi Calm Calm - N/A   Clear
11:53 PM 45.0 °F - 41.0 °F 86% 30.27 in 6.0 mi Calm Calm - N/A   Clear